Time,TemperatureF,DewpointF,PressureIn,WindDirection,WindDirectionDegrees,WindSpeedMPH,WindSpeedGustMPH,Humidity,HourlyPrecipIn,Conditions,Clouds,dailyrainin,SoftwareType,DateUTC
2013-02-20 00:00:00,18.9,6.9,30.31,SSE,148,0.0,0.0,59,0.00,,,0.00,Wunderground v.1.15,2013-02-20 06:00:00,
2013-02-20 00:10:00,19.0,7.0,30.31,SSE,148,0.0,0.0,59,0.00,,,0.00,Wunderground v.1.15,2013-02-20 06:10:00,
2013-02-20 00:15:00,19.0,7.0,30.31,SSE,148,0.0,0.0,59,0.00,,,0.00,Wunderground v.1.15,2013-02-20 06:15:00,
2013-02-20 00:20:00,18.9,7.3,30.31,SSE,148,0.0,0.0,60,0.00,,,0.00,Wunderground v.1.15,2013-02-20 06:20:00,
2013-02-20 00:30:00,18.7,7.5,30.31,SSE,148,0.0,0.0,61,0.00,,,0.00,Wunderground v.1.15,2013-02-20 06:30:00,
2013-02-20 00:35:00,18.5,7.3,30.31,SSE,148,0.0,0.0,61,0.00,,,0.00,Wunderground v.1.15,2013-02-20 06:35:00,
2013-02-20 00:40:00,18.3,7.1,30.31,SSE,148,0.0,0.0,61,0.00,,,0.00,Wunderground v.1.15,2013-02-20 06:40:00,
2013-02-20 00:50:00,18.4,7.5,30.32,SSE,148,0.0,0.0,62,0.00,,,0.00,Wunderground v.1.15,2013-02-20 06:50:00,
2013-02-20 00:55:00,18.2,7.0,30.32,SSE,148,0.0,0.0,61,0.00,,,0.00,Wunderground v.1.15,2013-02-20 06:55:00,
2013-02-20 01:05:00,17.9,7.1,30.32,SSE,148,0.0,0.0,62,0.00,,,0.00,Wunderground v.1.15,2013-02-20 07:05:00,
2013-02-20 01:10:00,17.8,7.3,30.32,SSE,148,0.0,0.0,63,0.00,,,0.00,Wunderground v.1.15,2013-02-20 07:10:00,
2013-02-20 01:15:00,17.6,7.1,30.32,SSE,148,0.0,0.0,63,0.00,,,0.00,Wunderground v.1.15,2013-02-20 07:15:00,
2013-02-20 01:30:00,17.2,7.4,30.32,SSE,148,0.0,0.0,65,0.00,,,0.00,Wunderground v.1.15,2013-02-20 07:30:00,
2013-02-20 01:35:00,17.2,7.4,30.32,SSE,148,0.0,0.0,65,0.00,,,0.00,Wunderground v.1.15,2013-02-20 07:35:00,
2013-02-20 01:40:00,17.1,7.3,30.32,SSE,148,0.0,0.0,65,0.00,,,0.00,Wunderground v.1.15,2013-02-20 07:40:00,
2013-02-20 01:45:00,17.2,7.4,30.31,SSE,148,0.0,0.0,65,0.00,,,0.00,Wunderground v.1.15,2013-02-20 07:45:00,
2013-02-20 01:55:00,17.2,6.8,30.32,South,187,0.0,1.0,63,0.00,,,0.00,Wunderground v.1.15,2013-02-20 07:55:00,
2013-02-20 02:00:00,17.3,6.5,30.32,WNW,288,0.0,0.0,62,0.00,,,0.00,Wunderground v.1.15,2013-02-20 08:00:00,
2013-02-20 02:05:00,17.3,6.5,30.32,WNW,288,0.0,0.0,62,0.00,,,0.00,Wunderground v.1.15,2013-02-20 08:05:00,
2013-02-20 02:15:00,17.3,6.1,30.32,WNW,288,0.0,0.0,61,0.00,,,0.00,Wunderground v.1.15,2013-02-20 08:15:00,
2013-02-20 02:20:00,17.4,6.2,30.31,WNW,288,0.0,1.0,61,0.00,,,0.00,Wunderground v.1.15,2013-02-20 08:20:00,
2013-02-20 02:25:00,17.4,6.2,30.31,WSW,252,1.0,1.0,61,0.00,,,0.00,Wunderground v.1.15,2013-02-20 08:25:00,
2013-02-20 02:35:00,17.5,6.7,30.30,SW,229,1.0,1.0,62,0.00,,,0.00,Wunderground v.1.15,2013-02-20 08:35:00,
2013-02-20 02:40:00,17.5,6.3,30.29,SW,218,1.0,1.0,61,0.00,,,0.00,Wunderground v.1.15,2013-02-20 08:40:00,
2013-02-20 02:50:00,17.4,6.2,30.29,WSW,245,1.0,1.0,61,0.00,,,0.00,Wunderground v.1.15,2013-02-20 08:50:00,
2013-02-20 02:55:00,17.4,6.2,30.29,SSW,195,1.0,1.0,61,0.00,,,0.00,Wunderground v.1.15,2013-02-20 08:55:00,
2013-02-20 03:00:00,17.4,6.2,30.29,SSW,207,1.0,1.0,61,0.00,,,0.00,Wunderground v.1.15,2013-02-20 09:00:00,
2013-02-20 03:10:00,17.2,6.4,30.30,West,268,0.0,0.0,62,0.00,,,0.00,Wunderground v.1.15,2013-02-20 09:10:00,
2013-02-20 03:15:00,17.1,6.3,30.30,West,269,0.0,0.0,62,0.00,,,0.00,Wunderground v.1.15,2013-02-20 09:15:00,
2013-02-20 03:25:00,17.0,6.6,30.29,SW,225,1.0,1.0,63,0.00,,,0.00,Wunderground v.1.15,2013-02-20 09:25:00,
2013-02-20 03:30:00,17.0,5.9,30.29,SSW,208,1.0,3.0,61,0.00,,,0.00,Wunderground v.1.15,2013-02-20 09:30:00,
2013-02-20 03:35:00,17.0,5.9,30.29,SW,225,1.0,3.0,61,0.00,,,0.00,Wunderground v.1.15,2013-02-20 09:35:00,
2013-02-20 03:40:00,17.0,5.9,30.29,SW,231,1.0,1.0,61,0.00,,,0.00,Wunderground v.1.15,2013-02-20 09:40:00,
2013-02-20 03:50:00,16.9,6.1,30.29,WSW,243,1.0,1.0,62,0.00,,,0.00,Wunderground v.1.15,2013-02-20 09:50:00,
2013-02-20 03:55:00,16.8,5.7,30.29,SW,232,1.0,2.0,61,0.00,,,0.00,Wunderground v.1.15,2013-02-20 09:55:00,
2013-02-20 04:00:00,16.7,5.6,30.29,WSW,246,1.0,1.0,61,0.00,,,0.00,Wunderground v.1.15,2013-02-20 10:00:00,
2013-02-20 04:10:00,16.4,6.0,30.30,WSW,244,1.0,1.0,63,0.00,,,0.00,Wunderground v.1.15,2013-02-20 10:10:00,
2013-02-20 04:20:00,16.3,5.2,30.30,SSW,208,1.0,1.0,61,0.00,,,0.00,Wunderground v.1.15,2013-02-20 10:20:00,
2013-02-20 04:25:00,16.3,5.5,30.30,SW,229,1.0,3.0,62,0.00,,,0.00,Wunderground v.1.15,2013-02-20 10:25:00,
2013-02-20 04:30:00,16.2,5.8,30.30,West,262,1.0,1.0,63,0.00,,,0.00,Wunderground v.1.15,2013-02-20 10:30:00,
2013-02-20 04:40:00,16.0,5.3,30.29,SW,214,1.0,4.0,62,0.00,,,0.00,Wunderground v.1.15,2013-02-20 10:40:00,
2013-02-20 04:45:00,16.0,6.0,30.29,SW,221,1.0,4.0,64,0.00,,,0.00,Wunderground v.1.15,2013-02-20 10:45:00,
2013-02-20 04:50:00,15.9,5.9,30.28,West,274,1.0,1.0,64,0.00,,,0.00,Wunderground v.1.15,2013-02-20 10:50:00,
2013-02-20 05:00:00,15.7,5.7,30.29,WSW,238,2.0,3.0,64,0.00,,,0.00,Wunderground v.1.15,2013-02-20 11:00:00,
2013-02-20 05:10:00,15.5,5.8,30.29,SW,225,1.0,1.0,65,0.00,,,0.00,Wunderground v.1.15,2013-02-20 11:10:00,
2013-02-20 05:15:00,15.4,6.1,30.29,West,278,1.0,1.0,66,0.00,,,0.00,Wunderground v.1.15,2013-02-20 11:15:00,
2013-02-20 05:25:00,15.2,6.2,30.28,SW,232,1.0,1.0,67,0.00,,,0.00,Wunderground v.1.15,2013-02-20 11:25:00,
2013-02-20 05:30:00,15.2,6.2,30.27,WNW,287,1.0,1.0,67,0.00,,,0.00,Wunderground v.1.15,2013-02-20 11:30:00,
2013-02-20 05:40:00,15.1,6.4,30.27,SW,226,2.0,3.0,68,0.00,,,0.00,Wunderground v.1.15,2013-02-20 11:40:00,
2013-02-20 05:45:00,15.1,6.1,30.27,WSW,250,2.0,3.0,67,0.00,,,0.00,Wunderground v.1.15,2013-02-20 11:45:00,
2013-02-20 05:55:00,15.1,6.4,30.27,WSW,239,2.0,3.0,68,0.00,,,0.00,Wunderground v.1.15,2013-02-20 11:55:00,
2013-02-20 06:00:00,15.1,5.8,30.27,West,262,2.0,3.0,66,0.00,,,0.00,Wunderground v.1.15,2013-02-20 12:00:00,
2013-02-20 06:10:00,15.1,6.1,30.27,WSW,242,3.0,3.0,67,0.00,,,0.00,Wunderground v.1.15,2013-02-20 12:10:00,
2013-02-20 06:15:00,15.0,6.0,30.28,SSW,208,2.0,3.0,67,0.00,,,0.00,Wunderground v.1.15,2013-02-20 12:15:00,
2013-02-20 06:20:00,14.9,5.9,30.29,SW,236,2.0,2.0,67,0.00,,,0.00,Wunderground v.1.15,2013-02-20 12:20:00,
2013-02-20 06:25:00,14.9,6.2,30.29,WSW,240,2.0,2.0,68,0.00,,,0.00,Wunderground v.1.15,2013-02-20 12:25:00,
2013-02-20 06:35:00,14.8,5.8,30.30,SW,235,2.0,2.0,67,0.00,,,0.00,Wunderground v.1.15,2013-02-20 12:35:00,
2013-02-20 06:40:00,14.7,5.7,30.31,WSW,248,2.0,3.0,67,0.00,,,0.00,Wunderground v.1.15,2013-02-20 12:40:00,
2013-02-20 06:45:00,14.7,6.0,30.31,West,266,2.0,3.0,68,0.00,,,0.00,Wunderground v.1.15,2013-02-20 12:45:00,
2013-02-20 06:55:00,14.6,6.0,30.32,West,262,2.0,3.0,68,0.00,,,0.00,Wunderground v.1.15,2013-02-20 12:55:00,
2013-02-20 07:00:00,14.6,6.3,30.32,WSW,250,2.0,2.0,69,0.00,,,0.00,Wunderground v.1.15,2013-02-20 13:00:00,
2013-02-20 07:09:00,14.6,6.3,30.33,West,263,2.0,2.0,69,0.00,,,0.00,Wunderground v.1.15,2013-02-20 13:09:00,
2013-02-20 07:20:00,14.8,6.8,30.33,SW,235,1.0,2.0,70,0.00,,,0.00,Wunderground v.1.15,2013-02-20 13:20:00,
2013-02-20 07:25:00,14.8,6.8,30.33,WSW,245,2.0,2.0,70,0.00,,,0.00,Wunderground v.1.15,2013-02-20 13:25:00,
2013-02-20 07:35:00,14.9,6.9,30.34,WSW,245,1.0,1.0,70,0.00,,,0.00,Wunderground v.1.15,2013-02-20 13:35:00,
2013-02-20 07:40:00,15.0,7.0,30.34,WSW,243,1.0,3.0,70,0.00,,,0.00,Wunderground v.1.15,2013-02-20 13:40:00,
2013-02-20 07:45:00,15.1,7.1,30.34,WSW,255,1.0,3.0,70,0.00,,,0.00,Wunderground v.1.15,2013-02-20 13:45:00,
2013-02-20 07:55:00,15.2,6.8,30.33,SW,225,2.0,6.0,69,0.00,,,0.00,Wunderground v.1.15,2013-02-20 13:55:00,
2013-02-20 08:00:00,15.2,6.8,30.33,SW,231,2.0,3.0,69,0.00,,,0.00,Wunderground v.1.15,2013-02-20 14:00:00,
2013-02-20 08:10:00,15.4,7.4,30.33,WSW,239,2.0,6.0,70,0.00,,,0.00,Wunderground v.1.15,2013-02-20 14:10:00,
2013-02-20 08:20:00,15.5,7.1,30.33,West,262,3.0,3.0,69,0.00,,,0.00,Wunderground v.1.15,2013-02-20 14:20:00,
2013-02-20 08:30:00,15.8,7.7,30.32,WSW,255,3.0,3.0,70,0.00,,,0.00,Wunderground v.1.15,2013-02-20 14:30:00,
2013-02-20 08:35:00,16.0,7.9,30.33,WSW,257,2.0,3.0,70,0.00,,,0.00,Wunderground v.1.15,2013-02-20 14:35:00,
2013-02-20 08:45:00,16.1,8.0,30.33,SSW,207,2.0,4.0,70,0.00,,,0.00,Wunderground v.1.15,2013-02-20 14:45:00,
2013-02-20 08:50:00,16.2,7.8,30.33,WSW,255,2.0,2.0,69,0.00,,,0.00,Wunderground v.1.15,2013-02-20 14:50:00,
2013-02-20 09:00:00,16.4,8.0,30.33,WSW,243,2.0,2.0,69,0.00,,,0.00,Wunderground v.1.15,2013-02-20 15:00:00,
2013-02-20 09:10:00,16.7,8.3,30.34,West,263,2.0,3.0,69,0.00,,,0.00,Wunderground v.1.15,2013-02-20 15:10:00,
2013-02-20 09:15:00,16.8,8.4,30.34,West,264,2.0,3.0,69,0.00,,,0.00,Wunderground v.1.15,2013-02-20 15:15:00,
2013-02-20 09:20:00,16.9,8.5,30.34,West,276,2.0,2.0,69,0.00,,,0.00,Wunderground v.1.15,2013-02-20 15:20:00,
2013-02-20 09:30:00,17.1,8.0,30.35,WSW,244,2.0,2.0,67,0.00,,,0.00,Wunderground v.1.15,2013-02-20 15:30:00,
2013-02-20 09:35:00,17.3,8.5,30.35,WNW,290,2.0,3.0,68,0.00,,,0.00,Wunderground v.1.15,2013-02-20 15:35:00,
2013-02-20 09:40:00,17.4,9.0,30.35,SW,229,2.0,4.0,69,0.00,,,0.00,Wunderground v.1.15,2013-02-20 15:40:00,
2013-02-20 09:50:00,17.8,9.3,30.34,West,278,2.0,2.0,69,0.00,,,0.00,Wunderground v.1.15,2013-02-20 15:50:00,
2013-02-20 09:55:00,17.9,9.4,30.34,SW,229,2.0,2.0,69,0.00,,,0.00,Wunderground v.1.15,2013-02-20 15:55:00,
2013-02-20 10:00:00,17.9,9.1,30.34,West,264,2.0,3.0,68,0.00,,,0.00,Wunderground v.1.15,2013-02-20 16:00:00,
2013-02-20 10:10:00,17.8,9.0,30.35,WSW,255,2.0,3.0,68,0.00,,,0.00,Wunderground v.1.15,2013-02-20 16:10:00,
2013-02-20 10:20:00,18.2,10.1,30.36,West,264,2.0,2.0,70,0.00,,,0.00,Wunderground v.1.15,2013-02-20 16:20:00,
2013-02-20 10:25:00,18.3,9.5,30.36,WSW,257,2.0,2.0,68,0.00,,,0.00,Wunderground v.1.15,2013-02-20 16:25:00,
2013-02-20 10:30:00,18.4,9.9,30.36,WSW,249,2.0,2.0,69,0.00,,,0.00,Wunderground v.1.15,2013-02-20 16:30:00,
2013-02-20 10:35:00,18.6,9.8,30.36,West,266,2.0,2.0,68,0.00,,,0.00,Wunderground v.1.15,2013-02-20 16:35:00,
2013-02-20 10:40:00,18.5,9.4,30.36,WSW,246,2.0,2.0,67,0.00,,,0.00,Wunderground v.1.15,2013-02-20 16:40:00,
2013-02-20 10:45:00,18.7,9.9,30.35,SW,217,1.0,2.0,68,0.00,,,0.00,Wunderground v.1.15,2013-02-20 16:45:00,
2013-02-20 10:50:00,18.8,10.0,30.35,West,277,1.0,1.0,68,0.00,,,0.00,Wunderground v.1.15,2013-02-20 16:50:00,
2013-02-20 11:00:00,19.0,9.5,30.35,West,277,2.0,2.0,66,0.00,,,0.00,Wunderground v.1.15,2013-02-20 17:00:00,
2013-02-20 11:10:00,19.1,9.9,30.35,West,264,1.0,1.0,67,0.00,,,0.00,Wunderground v.1.15,2013-02-20 17:10:00,
2013-02-20 11:20:00,19.5,10.3,30.34,WSW,243,1.0,1.0,67,0.00,,,0.00,Wunderground v.1.15,2013-02-20 17:20:00,
2013-02-20 11:25:00,19.6,10.7,30.34,SSW,203,1.0,1.0,68,0.00,,,0.00,Wunderground v.1.15,2013-02-20 17:25:00,
2013-02-20 11:30:00,19.7,10.8,30.33,West,271,1.0,1.0,68,0.00,,,0.00,Wunderground v.1.15,2013-02-20 17:30:00,
2013-02-20 11:40:00,20.0,11.1,30.33,WSW,249,1.0,2.0,68,0.00,,,0.00,Wunderground v.1.15,2013-02-20 17:40:00,
2013-02-20 11:45:00,20.1,10.9,30.33,WSW,243,2.0,2.0,67,0.00,,,0.00,Wunderground v.1.15,2013-02-20 17:45:00,
2013-02-20 11:55:00,19.9,10.7,30.33,West,269,2.0,2.0,67,0.00,,,0.00,Wunderground v.1.15,2013-02-20 17:55:00,
2013-02-20 12:00:00,20.0,10.8,30.33,SW,219,1.0,2.0,67,0.00,,,0.00,Wunderground v.1.15,2013-02-20 18:00:00,
2013-02-20 12:10:00,20.1,10.9,30.32,West,263,1.0,1.0,67,0.00,,,0.00,Wunderground v.1.15,2013-02-20 18:10:00,
2013-02-20 12:15:00,20.5,11.9,30.32,WSW,250,1.0,2.0,69,0.00,,,0.00,Wunderground v.1.15,2013-02-20 18:15:00,
2013-02-20 12:20:00,20.6,11.4,30.32,WSW,243,1.0,2.0,67,0.00,,,0.00,Wunderground v.1.15,2013-02-20 18:20:00,
2013-02-20 12:25:00,20.6,11.7,30.32,West,270,2.0,2.0,68,0.00,,,0.00,Wunderground v.1.15,2013-02-20 18:25:00,
2013-02-20 12:30:00,20.6,11.4,30.31,SW,236,2.0,2.0,67,0.00,,,0.00,Wunderground v.1.15,2013-02-20 18:30:00,
2013-02-20 12:40:00,20.4,11.2,30.30,WSW,257,3.0,3.0,67,0.00,,,0.00,Wunderground v.1.15,2013-02-20 18:40:00,
2013-02-20 12:45:00,20.5,10.9,30.30,WNW,291,3.0,4.0,66,0.00,,,0.00,Wunderground v.1.15,2013-02-20 18:45:00,
2013-02-20 12:50:00,20.5,11.3,30.29,SW,228,3.0,3.0,67,0.00,,,0.00,Wunderground v.1.15,2013-02-20 18:50:00,
2013-02-20 12:55:00,20.6,11.4,30.29,West,274,3.0,3.0,67,0.00,,,0.00,Wunderground v.1.15,2013-02-20 18:55:00,
2013-02-20 13:00:00,20.7,11.5,30.28,WSW,249,3.0,4.0,67,0.00,,,0.00,Wunderground v.1.15,2013-02-20 19:00:00,
2013-02-20 13:10:00,20.8,11.2,30.28,WNW,287,3.0,3.0,66,0.00,,,0.00,Wunderground v.1.15,2013-02-20 19:10:00,
2013-02-20 13:20:00,20.9,11.3,30.28,West,273,3.0,5.0,66,0.00,,,0.00,Wunderground v.1.15,2013-02-20 19:20:00,
2013-02-20 13:30:00,21.2,11.9,30.27,WNW,295,3.0,3.0,67,0.00,,,0.00,Wunderground v.1.15,2013-02-20 19:30:00,
2013-02-20 13:35:00,21.5,12.2,30.26,WSW,254,3.0,3.0,67,0.00,,,0.00,Wunderground v.1.15,2013-02-20 19:35:00,
2013-02-20 13:40:00,21.7,12.1,30.26,WSW,257,4.0,7.0,66,0.00,,,0.00,Wunderground v.1.15,2013-02-20 19:40:00,
2013-02-20 13:50:00,21.9,12.3,30.25,SW,220,4.0,6.0,66,0.00,,,0.00,Wunderground v.1.15,2013-02-20 19:50:00,
2013-02-20 14:00:00,22.0,12.4,30.24,WNW,300,4.0,4.0,66,0.00,,,0.00,Wunderground v.1.15,2013-02-20 20:00:00,
2013-02-20 14:10:00,21.9,12.3,30.24,West,266,5.0,5.0,66,0.00,,,0.00,Wunderground v.1.15,2013-02-20 20:10:00,
2013-02-20 14:15:00,21.9,12.3,30.24,WSW,238,5.0,5.0,66,0.00,,,0.00,Wunderground v.1.15,2013-02-20 20:15:00,
2013-02-20 14:20:00,22.1,12.8,30.24,WSW,248,5.0,5.0,67,0.00,,,0.00,Wunderground v.1.15,2013-02-20 20:20:00,
2013-02-20 14:25:00,22.3,13.0,30.23,SW,225,4.0,5.0,67,0.00,,,0.00,Wunderground v.1.15,2013-02-20 20:25:00,
2013-02-20 14:30:00,22.6,12.9,30.24,West,274,4.0,4.0,66,0.00,,,0.00,Wunderground v.1.15,2013-02-20 20:30:00,
2013-02-20 14:40:00,22.9,13.6,30.23,SW,232,4.0,4.0,67,0.00,,,0.00,Wunderground v.1.15,2013-02-20 20:40:00,
2013-02-20 14:45:00,23.1,13.4,30.23,SW,231,3.0,4.0,66,0.00,,,0.00,Wunderground v.1.15,2013-02-20 20:45:00,
2013-02-20 14:54:00,23.1,12.7,30.23,West,280,5.0,7.0,64,0.00,,,0.00,Wunderground v.1.15,2013-02-20 20:54:00,
2013-02-20 15:00:00,23.3,13.3,30.22,West,281,5.0,5.0,65,0.00,,,0.00,Wunderground v.1.15,2013-02-20 21:00:00,
2013-02-20 15:10:00,23.2,13.2,30.22,WNW,283,5.0,5.0,65,0.00,,,0.00,Wunderground v.1.15,2013-02-20 21:10:00,
2013-02-20 15:15:00,23.4,13.4,30.22,WSW,249,5.0,5.0,65,0.00,,,0.00,Wunderground v.1.15,2013-02-20 21:15:00,
2013-02-20 15:25:00,23.7,13.6,30.22,West,263,4.0,5.0,65,0.00,,,0.00,Wunderground v.1.15,2013-02-20 21:25:00,
2013-02-20 15:30:00,23.9,13.8,30.22,West,277,3.0,3.0,65,0.00,,,0.00,Wunderground v.1.15,2013-02-20 21:30:00,
2013-02-20 15:35:00,24.1,14.0,30.22,WSW,254,3.0,5.0,65,0.00,,,0.00,Wunderground v.1.15,2013-02-20 21:35:00,
2013-02-20 15:45:00,24.2,13.8,30.22,WSW,246,4.0,4.0,64,0.00,,,0.00,Wunderground v.1.15,2013-02-20 21:45:00,
2013-02-20 15:50:00,24.2,14.1,30.22,WSW,255,3.0,3.0,65,0.00,,,0.00,Wunderground v.1.15,2013-02-20 21:50:00,
2013-02-20 15:55:00,24.6,14.5,30.21,West,276,2.0,3.0,65,0.00,,,0.00,Wunderground v.1.15,2013-02-20 21:55:00,
2013-02-20 16:00:00,24.7,14.2,30.21,West,275,3.0,3.0,64,0.00,,,0.00,Wunderground v.1.15,2013-02-20 22:00:00,
2013-02-20 16:10:00,24.8,14.0,30.21,West,260,3.0,3.0,63,0.00,,,0.00,Wunderground v.1.15,2013-02-20 22:10:00,
2013-02-20 16:15:00,25.0,14.2,30.20,West,281,4.0,4.0,63,0.00,,,0.00,Wunderground v.1.15,2013-02-20 22:15:00,
2013-02-20 16:20:00,25.1,13.9,30.20,West,273,4.0,4.0,62,0.00,,,0.00,Wunderground v.1.15,2013-02-20 22:20:00,
2013-02-20 16:30:00,25.1,13.9,30.19,SW,231,4.0,5.0,62,0.00,,,0.00,Wunderground v.1.15,2013-02-20 22:30:00,
2013-02-20 16:35:00,25.1,13.9,30.19,West,274,4.0,5.0,62,0.00,,,0.00,Wunderground v.1.15,2013-02-20 22:35:00,
2013-02-20 16:45:00,24.8,14.0,30.19,WNW,289,4.0,4.0,63,0.00,,,0.00,Wunderground v.1.15,2013-02-20 22:45:00,
2013-02-20 16:55:00,24.7,13.9,30.18,WSW,245,4.0,4.0,63,0.00,,,0.00,Wunderground v.1.15,2013-02-20 22:55:00,
2013-02-20 17:00:00,24.8,14.0,30.17,WNW,284,4.0,4.0,63,0.00,,,0.00,Wunderground v.1.15,2013-02-20 23:00:00,
2013-02-20 17:10:00,24.6,13.8,30.18,West,264,4.0,4.0,63,0.00,,,0.00,Wunderground v.1.15,2013-02-20 23:10:00,
2013-02-20 17:15:00,24.5,13.7,30.19,NW,314,4.0,4.0,63,0.00,,,0.00,Wunderground v.1.15,2013-02-20 23:15:00,
2013-02-20 17:20:00,24.6,14.1,30.19,West,271,2.0,2.0,64,0.00,,,0.00,Wunderground v.1.15,2013-02-20 23:20:00,
2013-02-20 17:30:00,24.6,14.1,30.19,West,259,2.0,3.0,64,0.00,,,0.00,Wunderground v.1.15,2013-02-20 23:30:00,
2013-02-20 17:35:00,24.6,14.1,30.19,West,267,2.0,3.0,64,0.00,,,0.00,Wunderground v.1.15,2013-02-20 23:35:00,
2013-02-20 17:40:00,24.6,14.1,30.19,West,260,3.0,3.0,64,0.00,,,0.00,Wunderground v.1.15,2013-02-20 23:40:00,
2013-02-20 17:45:00,24.5,14.4,30.19,West,260,3.0,3.0,65,0.00,,,0.00,Wunderground v.1.15,2013-02-20 23:45:00,
2013-02-20 17:50:00,24.4,14.0,30.19,WSW,245,3.0,3.0,64,0.00,,,0.00,Wunderground v.1.15,2013-02-20 23:50:00,
2013-02-20 17:55:00,24.4,14.3,30.19,WSW,238,3.0,6.0,65,0.00,,,0.00,Wunderground v.1.15,2013-02-20 23:55:00,
2013-02-20 18:00:00,24.4,14.3,30.19,WSW,246,3.0,4.0,65,0.00,,,0.00,Wunderground v.1.15,2013-02-21 00:00:00,
2013-02-20 18:10:00,24.4,14.0,30.20,West,269,3.0,3.0,64,0.00,,,0.00,Wunderground v.1.15,2013-02-21 00:10:00,
2013-02-20 18:15:00,24.4,14.0,30.20,West,275,3.0,3.0,64,0.00,,,0.00,Wunderground v.1.15,2013-02-21 00:15:00,
2013-02-20 18:20:00,24.4,14.3,30.20,WSW,245,3.0,3.0,65,0.00,,,0.00,Wunderground v.1.15,2013-02-21 00:20:00,
2013-02-20 18:25:00,24.4,14.0,30.20,WNW,285,3.0,3.0,64,0.00,,,0.00,Wunderground v.1.15,2013-02-21 00:25:00,
2013-02-20 18:30:00,24.4,14.3,30.20,SW,231,3.0,3.0,65,0.00,,,0.00,Wunderground v.1.15,2013-02-21 00:30:00,
2013-02-20 18:40:00,24.4,14.3,30.20,WSW,245,2.0,3.0,65,0.00,,,0.00,Wunderground v.1.15,2013-02-21 00:40:00,
2013-02-20 18:45:00,24.4,14.3,30.20,WNW,287,3.0,3.0,65,0.00,,,0.00,Wunderground v.1.15,2013-02-21 00:45:00,
2013-02-20 18:50:00,24.5,14.1,30.20,NW,309,3.0,3.0,64,0.00,,,0.00,Wunderground v.1.15,2013-02-21 00:50:00,
2013-02-20 18:55:00,24.4,14.0,30.20,West,264,3.0,3.0,64,0.00,,,0.00,Wunderground v.1.15,2013-02-21 00:55:00,
2013-02-20 19:00:00,24.5,14.1,30.20,SW,232,3.0,6.0,64,0.00,,,0.00,Wunderground v.1.15,2013-02-21 01:00:00,
2013-02-20 19:10:00,24.5,14.1,30.19,West,264,3.0,4.0,64,0.00,,,0.00,Wunderground v.1.15,2013-02-21 01:10:00,
2013-02-20 19:15:00,24.5,14.1,30.19,WSW,242,4.0,7.0,64,0.00,,,0.00,Wunderground v.1.15,2013-02-21 01:15:00,
2013-02-20 19:20:00,24.5,14.4,30.18,West,262,4.0,4.0,65,0.00,,,0.00,Wunderground v.1.15,2013-02-21 01:20:00,
2013-02-20 19:30:00,24.5,14.4,30.18,WSW,253,4.0,6.0,65,0.00,,,0.00,Wunderground v.1.15,2013-02-21 01:30:00,
2013-02-20 19:40:00,24.5,14.4,30.18,WNW,285,4.0,4.0,65,0.00,,,0.00,Wunderground v.1.15,2013-02-21 01:40:00,
2013-02-20 19:45:00,24.5,14.4,30.18,WSW,240,3.0,6.0,65,0.00,,,0.00,Wunderground v.1.15,2013-02-21 01:45:00,
2013-02-20 19:50:00,24.5,14.4,30.18,West,270,4.0,4.0,65,0.00,,,0.00,Wunderground v.1.15,2013-02-21 01:50:00,
2013-02-20 19:55:00,24.6,14.5,30.18,WSW,256,4.0,4.0,65,0.00,,,0.00,Wunderground v.1.15,2013-02-21 01:55:00,
2013-02-20 20:05:00,24.6,14.1,30.17,WSW,251,4.0,5.0,64,0.00,,,0.00,Wunderground v.1.15,2013-02-21 02:05:00,
2013-02-20 20:15:00,24.6,14.5,30.18,WSW,257,4.0,5.0,65,0.00,,,0.00,Wunderground v.1.15,2013-02-21 02:15:00,
2013-02-20 20:20:00,24.6,14.5,30.17,West,263,3.0,6.0,65,0.00,,,0.00,Wunderground v.1.15,2013-02-21 02:20:00,
2013-02-20 20:30:00,24.5,14.4,30.18,West,260,4.0,5.0,65,0.00,,,0.00,Wunderground v.1.15,2013-02-21 02:30:00,
2013-02-20 20:35:00,24.3,14.2,30.18,WSW,244,4.0,5.0,65,0.00,,,0.00,Wunderground v.1.15,2013-02-21 02:35:00,
2013-02-20 20:40:00,24.2,14.5,30.18,SW,235,3.0,7.0,66,0.00,,,0.00,Wunderground v.1.15,2013-02-21 02:40:00,
2013-02-20 20:50:00,23.9,14.2,30.18,West,267,4.0,4.0,66,0.00,,,0.00,Wunderground v.1.15,2013-02-21 02:50:00,
2013-02-20 20:55:00,23.9,14.2,30.18,West,270,3.0,4.0,66,0.00,,,0.00,Wunderground v.1.15,2013-02-21 02:55:00,
2013-02-20 21:00:00,23.8,14.4,30.18,West,263,3.0,3.0,67,0.00,,,0.00,Wunderground v.1.15,2013-02-21 03:00:00,
2013-02-20 21:10:00,23.7,14.3,30.18,West,259,3.0,3.0,67,0.00,,,0.00,Wunderground v.1.15,2013-02-21 03:10:00,
2013-02-20 21:20:00,23.6,14.6,30.18,West,263,3.0,3.0,68,0.00,,,0.00,Wunderground v.1.15,2013-02-21 03:20:00,
2013-02-20 21:25:00,23.5,14.5,30.18,WNW,285,3.0,3.0,68,0.00,,,0.00,Wunderground v.1.15,2013-02-21 03:25:00,
2013-02-20 21:35:00,23.6,14.6,30.18,WSW,254,3.0,4.0,68,0.00,,,0.00,Wunderground v.1.15,2013-02-21 03:35:00,
2013-02-20 21:45:00,23.6,14.9,30.19,West,271,3.0,4.0,69,0.00,,,0.00,Wunderground v.1.15,2013-02-21 03:45:00,
2013-02-20 21:50:00,23.5,14.8,30.19,WSW,249,3.0,4.0,69,0.00,,,0.00,Wunderground v.1.15,2013-02-21 03:50:00,
2013-02-20 21:55:00,23.4,14.7,30.19,WSW,257,3.0,3.0,69,0.00,,,0.00,Wunderground v.1.15,2013-02-21 03:55:00,
2013-02-20 22:05:00,23.1,14.8,30.19,West,270,3.0,4.0,70,0.00,,,0.00,Wunderground v.1.15,2013-02-21 04:05:00,
2013-02-20 22:10:00,22.9,14.9,30.19,WSW,257,3.0,4.0,71,0.00,,,0.00,Wunderground v.1.15,2013-02-21 04:10:00,
2013-02-20 22:15:00,22.8,14.8,30.18,WNW,283,3.0,6.0,71,0.00,,,0.00,Wunderground v.1.15,2013-02-21 04:15:00,
2013-02-20 22:20:00,22.8,14.8,30.18,WSW,246,3.0,3.0,71,0.00,,,0.00,Wunderground v.1.15,2013-02-21 04:20:00,
2013-02-20 22:30:00,22.7,15.0,30.19,WNW,287,3.0,3.0,72,0.00,,,0.00,Wunderground v.1.15,2013-02-21 04:30:00,
2013-02-20 22:35:00,22.6,14.9,30.19,WSW,240,3.0,6.0,72,0.00,,,0.00,Wunderground v.1.15,2013-02-21 04:35:00,
2013-02-20 22:40:00,22.5,14.8,30.18,WSW,257,4.0,6.0,72,0.00,,,0.00,Wunderground v.1.15,2013-02-21 04:40:00,
2013-02-20 22:45:00,22.4,14.7,30.18,WSW,250,4.0,6.0,72,0.00,,,0.00,Wunderground v.1.15,2013-02-21 04:45:00,
2013-02-20 22:50:00,22.3,15.0,30.18,WSW,243,4.0,5.0,73,0.00,,,0.00,Wunderground v.1.15,2013-02-21 04:50:00,
2013-02-20 22:55:00,22.2,14.9,30.18,West,259,4.0,5.0,73,0.00,,,0.00,Wunderground v.1.15,2013-02-21 04:55:00,
2013-02-20 23:00:00,22.1,14.8,30.18,SW,236,3.0,4.0,73,0.00,,,0.00,Wunderground v.1.15,2013-02-21 05:00:00,
2013-02-20 23:05:00,22.1,14.8,30.18,WSW,257,4.0,4.0,73,0.00,,,0.00,Wunderground v.1.15,2013-02-21 05:05:00,
2013-02-20 23:10:00,22.1,14.8,30.18,WSW,248,4.0,4.0,73,0.00,,,0.00,Wunderground v.1.15,2013-02-21 05:10:00,
2013-02-20 23:15:00,22.1,14.8,30.19,WSW,238,4.0,5.0,73,0.00,,,0.00,Wunderground v.1.15,2013-02-21 05:15:00,
2013-02-20 23:20:00,22.2,14.9,30.19,WSW,246,4.0,6.0,73,0.00,,,0.00,Wunderground v.1.15,2013-02-21 05:20:00,
2013-02-20 23:25:00,22.2,14.9,30.18,WSW,253,4.0,6.0,73,0.00,,,0.00,Wunderground v.1.15,2013-02-21 05:25:00,
2013-02-20 23:30:00,22.2,14.9,30.18,WNW,297,4.0,4.0,73,0.00,,,0.00,Wunderground v.1.15,2013-02-21 05:30:00,
2013-02-20 23:40:00,22.3,15.0,30.18,WSW,248,4.0,4.0,73,0.00,,,0.00,Wunderground v.1.15,2013-02-21 05:40:00,
2013-02-20 23:45:00,22.3,15.0,30.18,WSW,253,4.0,7.0,73,0.00,,,0.00,Wunderground v.1.15,2013-02-21 05:45:00,
2013-02-20 23:50:00,22.4,15.4,30.18,WSW,242,4.0,4.0,74,0.00,,,0.00,Wunderground v.1.15,2013-02-21 05:50:00,